Location: Burland Observatory
(39.4088°N, 105.4217°W)
Time: 12:38:13
(UTC-07:00)

Vanguard 3 - Pass Details

Date: 16 December 2019
Orbit: 507 x 3263 km, 33.4° (Epoch: 22 January)

Event Time Altitude Azimuth Distance (km) Brightness Sun altitude
Rises 08:52:52 0° 265° (W) 3,690 10.2 13.9°
Reaches altitude 10° 08:55:01 10° 261° (W) 2,990 9.8 14.2°
Maximum altitude 09:02:28 60° 183° (S) 1,828 9.5 15.2°
Drops below altitude 10° 09:15:54 10° 109° (ESE) 5,184 12.4 16.8°
Sets 09:20:55 0° 107° (ESE) 6,571 12.7 17.4°
